This is the latest recevied weather packets stored in our database for station/object KO4ZGL-13. If no packets are shown the sender has not sent any weather packets the latest 10 day(s).
| Time | Temp. | Humidity | Pressure | Rain* | Wind** | Luminosity | Snow |
|---|---|---|---|---|---|---|---|
| 1787847168 | 31.67° C | 80% | 1016.8 hPa | 0 mm | - | 393 W/m² | - |
| 1787846860 | 30.56° C | 83% | 1017.2 hPa | 0 mm | - | 766 W/m² | - |
| 1787846554 | 31.11° C | 80% | 1016.7 hPa | 0 mm | - | 141 W/m² | - |
| 1787846250 | 31.11° C | 80% | 1017.1 hPa | 0 mm | - | 730 W/m² | - |
| 1787845946 | 30.56° C | 83% | 1017.1 hPa | 0 mm | - | 791 W/m² | - |
| 1787845641 | 30° C | 83% | 1017.1 hPa | 0 mm | - | 222 W/m² | - |
| 1787845340 | 30.56° C | 83% | 1017.2 hPa | 0 mm | - | 203 W/m² | - |
| 1787845037 | 30.56° C | 82% | 1017.3 hPa | 0 mm | - | 153 W/m² | - |
| 1787844732 | 30.56° C | 82% | 1017.5 hPa | 0 mm | - | 427 W/m² | - |
| 1787844431 | 30.56° C | 82% | 1017.4 hPa | 0 mm | - | 154 W/m² | - |
| 1787844126 | 30.56° C | 82% | 1017.3 hPa | 0 mm | - | 243 W/m² | - |
| 1787843820 | 30° C | 83% | 1017.3 hPa | 0 mm | - | 684 W/m² | - |
| 1787843515 | 30.56° C | 81% | 1017.4 hPa | 0 mm | - | 683 W/m² | - |
| 1787843212 | 30.56° C | 81% | 1017.5 hPa | 0 mm | - | 647 W/m² | - |
| 1787842907 | 30° C | 82% | 1017.3 hPa | 0 mm | - | 718 W/m² | - |
| 1787842602 | 30.56° C | 83% | 1017.3 hPa | 0 mm | - | 579 W/m² | - |
| 1787842302 | 30° C | 85% | 1017.3 hPa | 0 mm | - | 206 W/m² | - |
| 1787842002 | 28.89° C | 86% | 1017.2 hPa | 0 mm | - | 580 W/m² | - |
| 1787841698 | 29.44° C | 86% | 1017.3 hPa | 0 mm | - | 537 W/m² | - |
| 1787841397 | 30° C | 85% | 1017.1 hPa | 0 mm | - | 571 W/m² | - |
| 1787841091 | 29.44° C | 85% | 1017.3 hPa | 0 mm | - | 550 W/m² | - |
| 1787840787 | 29.44° C | 87% | 1017.1 hPa | 0 mm | - | 547 W/m² | - |
| 1787840481 | 28.33° C | 90% | 1016.8 hPa | 0 mm | - | 528 W/m² | - |
| 1787840177 | 27.78° C | 93% | 1017.1 hPa | 0 mm | - | 504 W/m² | - |
| 1787839876 | 27.22° C | 94% | 1017.1 hPa | 0 mm | - | 230 W/m² | - |
* Rain latest hour (hover to see other rain measurements)
** Current wind speed in m/s (hover to see current wind gust speed)